Location: Haliburton Scout Reserve
(45.0900°N, 78.3200°W)
Time: 02:51:22
(UTC-04:00)

TIGRISAT - Visible Passes

Search period start: 23 September 2023 00:00
Search period end: 03 October 2023 00:00
Orbit: 598 x 680 km, 97.7° (Epoch: 22 September)

Date Brightness Start Highest point End Pass type
(mag) Time Alt. Az. Time Alt. Az. Time Alt. Az.
23 Sep ? 04:58:25 10° SE 05:02:21 36° ENE 05:06:15 10° N visible
23 Sep ? 20:00:01 10° NNW 20:02:22 15° WNW 20:04:42 10° W visible
24 Sep ? 05:21:06 10° SSE 05:25:21 62° ENE 05:29:34 10° N visible
25 Sep ? 04:10:42 10° E 04:12:27 12° ENE 04:14:12 10° NE visible
25 Sep ? 05:44:07 10° S 05:48:25 74° W 05:52:40 10° NNW visible
26 Sep ? 04:32:09 10° ESE 04:35:16 20° ENE 04:38:22 10° NNE visible
26 Sep ? 06:07:28 10° S 06:11:32 41° W 06:15:34 10° NNW visible
26 Sep ? 19:31:48 10° NNW 19:35:19 26° WNW 19:38:53 10° WSW visible
27 Sep ? 04:54:20 10° SE 04:58:10 33° ENE 05:01:57 10° N visible
27 Sep ? 06:31:16 10° SSW 06:34:43 24° W 06:38:10 10° NW visible
27 Sep ? 19:55:34 10° NNW 19:58:10 16° WNW 20:00:47 10° W visible
28 Sep ? 05:16:56 10° SSE 05:21:07 57° ENE 05:25:15 10° N visible
29 Sep ? 04:06:57 10° ENE 04:08:14 11° ENE 04:09:32 10° NE visible
29 Sep ? 05:39:52 10° S 05:44:08 81° WSW 05:48:22 10° NNW visible
30 Sep ? 04:28:05 10° ESE 04:31:00 18° ENE 04:33:56 10° NNE visible
30 Sep ? 06:03:08 10° S 06:07:13 45° W 06:11:17 10° NNW visible
30 Sep ? 19:27:22 10° N 19:31:03 28° WNW 19:34:46 10° SW visible
01 Oct ? 04:50:10 10° SE 04:53:51 30° ENE 04:57:32 10° N visible
01 Oct ? 06:26:49 10° SSW 06:30:22 26° W 06:33:55 10° NW visible
01 Oct ? 19:51:02 10° NNW 19:53:53 18° WNW 19:56:45 10° WSW visible
02 Oct ? 05:12:40 10° SSE 05:16:46 51° ENE 05:20:52 10° N visible
02 Oct ? 20:15:37 10° NW 20:16:38 11° WNW 20:17:39 10° WNW visible
